VOE3JU LEVC-LFBD

Flight info

Callsign VOE3JU
Flight time 0h 58m
Altitude 34000
Route SOPET N608 MATEX DCT OSLAP DCT USKAR DCT MOPAS DCT GIROM DCT AGN DCT SECHE/N0376F180 R17 MIRBA
Aircraft A320/M-SDE3FGHIRWY/LB1

Departure

Time 2026-05-05 01:37
Airport Valencia Airport (LEVC)

Arrival

Time 2026-05-05 02:36
Airport Bordeaux–Mérignac Airport (LFBD)
Time Latitude Longitude Altitude Speed Heading
2026-05-05 01:25 39.49067 -0.47439 209 ft 0 kts 39°
2026-05-05 01:25 39.49056 -0.47450 213 ft 4 kts 36°
2026-05-05 01:26 39.49034 -0.47469 209 ft 4 kts 24°
2026-05-05 01:26 39.49009 -0.47477 211 ft 4 kts 347°
2026-05-05 01:26 39.48996 -0.47467 209 ft 1 kts 295°
2026-05-05 01:26 39.48994 -0.47463 217 ft 0 kts 295°
2026-05-05 01:28 39.48994 -0.47462 217 ft 2 kts 295°
2026-05-05 01:29 39.48987 -0.47442 209 ft 2 kts 295°
2026-05-05 01:29 39.48979 -0.47421 209 ft 2 kts 295°
2026-05-05 01:29 39.48972 -0.47401 213 ft 2 kts 295°
2026-05-05 01:29 39.48965 -0.47381 215 ft 2 kts 295°
2026-05-05 01:30 39.48958 -0.47361 212 ft 2 kts 295°
2026-05-05 01:30 39.48951 -0.47342 211 ft 1 kts 300°
2026-05-05 01:30 39.48943 -0.47324 212 ft 2 kts 301°
2026-05-05 01:30 39.48934 -0.47305 211 ft 2 kts 301°
2026-05-05 01:31 39.48925 -0.47286 215 ft 2 kts 272°
2026-05-05 01:31 39.48924 -0.47264 209 ft 2 kts 272°
2026-05-05 01:31 39.48924 -0.47247 216 ft 0 kts 272°
2026-05-05 01:32 39.48921 -0.47255 217 ft 1 kts 244°
2026-05-05 01:32 39.48900 -0.47253 216 ft 5 kts 156°
2026-05-05 01:32 39.48873 -0.47237 214 ft 4 kts 156°
2026-05-05 01:33 39.48839 -0.47218 213 ft 7 kts 156°
2026-05-05 01:33 39.48787 -0.47187 212 ft 9 kts 150°
2026-05-05 01:33 39.48736 -0.47120 212 ft 12 kts 120°
2026-05-05 01:33 39.48697 -0.47019 211 ft 13 kts 116°
2026-05-05 01:34 39.48658 -0.46917 214 ft 13 kts 116°
2026-05-05 01:34 39.48617 -0.46816 209 ft 11 kts 122°
2026-05-05 01:34 39.48604 -0.46794 210 ft 0 kts 129°
2026-05-05 01:35 39.48603 -0.46792 210 ft 2 kts 129°
2026-05-05 01:35 39.48577 -0.46755 209 ft 6 kts 137°
2026-05-05 01:35 39.48542 -0.46731 214 ft 7 kts 164°
2026-05-05 01:36 39.48476 -0.46750 212 ft 10 kts 217°
2026-05-05 01:36 39.48446 -0.46811 212 ft 7 kts 246°
2026-05-05 01:36 39.48438 -0.46864 212 ft 6 kts 277°
2026-05-05 01:36 39.48455 -0.46909 214 ft 6 kts 297°
2026-05-05 01:37 39.48499 -0.47022 213 ft 42 kts 297°
2026-05-05 01:37 39.48746 -0.47676 214 ft 116 kts 296°
2026-05-05 01:37 39.49189 -0.48830 331 ft 158 kts 297°
2026-05-05 01:37 39.49683 -0.50085 1059 ft 156 kts 298°
2026-05-05 01:38 39.50191 -0.51325 1801 ft 156 kts 298°
2026-05-05 01:38 39.50722 -0.52617 2339 ft 173 kts 297°
2026-05-05 01:38 39.51321 -0.54084 2709 ft 195 kts 297°
2026-05-05 01:38 39.51995 -0.55741 3074 ft 221 kts 297°
2026-05-05 01:39 39.52938 -0.57447 3556 ft 246 kts 313°
2026-05-05 01:39 39.54297 -0.58833 4342 ft 258 kts 328°
2026-05-05 01:39 39.55984 -0.59706 5346 ft 266 kts 345°
2026-05-05 01:39 39.57857 -0.59798 6285 ft 276 kts
2026-05-05 01:40 39.59652 -0.58817 7118 ft 289 kts 36°
2026-05-05 01:40 39.60943 -0.56800 7980 ft 296 kts 62°
2026-05-05 01:40 39.61897 -0.54410 8889 ft 301 kts 64°
2026-05-05 01:40 39.62860 -0.51978 9806 ft 306 kts 64°
2026-05-05 01:41 39.63854 -0.49470 10343 ft 323 kts 64°
2026-05-05 01:41 39.64922 -0.46780 10660 ft 347 kts 64°
2026-05-05 01:41 39.66055 -0.43938 10927 ft 371 kts 63°
2026-05-05 01:41 39.67280 -0.40889 11320 ft 388 kts 63°
2026-05-05 01:42 39.68541 -0.37759 11957 ft 396 kts 63°
2026-05-05 01:42 39.69829 -0.34559 12621 ft 403 kts 63°
2026-05-05 01:42 39.71132 -0.31312 13306 ft 409 kts 63°
2026-05-05 01:42 39.72455 -0.28006 13949 ft 415 kts 63°
2026-05-05 01:43 39.73789 -0.24666 14543 ft 421 kts 62°
2026-05-05 01:43 39.75003 -0.21616 15097 ft 426 kts 63°
2026-05-05 01:43 39.75350 -0.20739 15257 ft 427 kts 63°
2026-05-05 01:43 39.76719 -0.17285 15868 ft 432 kts 62°
2026-05-05 01:44 39.78103 -0.13799 16482 ft 437 kts 62°
2026-05-05 01:44 39.79484 -0.10316 17085 ft 442 kts 63°
2026-05-05 01:44 39.81035 -0.06855 17700 ft 446 kts 54°
2026-05-05 01:44 39.83027 -0.03746 18334 ft 448 kts 43°
2026-05-05 01:45 39.85406 -0.01119 18867 ft 450 kts 32°
2026-05-05 01:45 39.88096 0.00935 19385 ft 448 kts 21°
2026-05-05 01:45 39.91004 0.02362 19905 ft 446 kts 11°
2026-05-05 01:45 39.94003 0.03464 20418 ft 450 kts 11°
2026-05-05 01:46 39.97029 0.04578 20911 ft 453 kts 11°
2026-05-05 01:46 40.00078 0.05710 21391 ft 457 kts 11°
2026-05-05 01:46 40.03147 0.06854 21899 ft 461 kts 11°
2026-05-05 01:46 40.06206 0.07995 22327 ft 465 kts 11°
2026-05-05 01:47 40.09327 0.09159 22789 ft 469 kts 10°
2026-05-05 01:47 40.12478 0.10334 23224 ft 472 kts 10°
2026-05-05 01:47 40.15649 0.11520 23609 ft 476 kts 10°
2026-05-05 01:47 40.18842 0.12719 23965 ft 479 kts 10°
2026-05-05 01:48 40.22052 0.13924 24341 ft 481 kts 10°
2026-05-05 01:48 40.25279 0.15133 24692 ft 483 kts 10°
2026-05-05 01:48 40.28520 0.16344 25035 ft 487 kts
2026-05-05 01:48 40.31790 0.17566 25367 ft 490 kts
2026-05-05 01:49 40.35074 0.18798 25697 ft 492 kts
2026-05-05 01:49 40.38328 0.20020 26012 ft 494 kts
2026-05-05 01:49 40.41640 0.21265 26326 ft 496 kts
2026-05-05 01:49 40.44965 0.22515 26634 ft 498 kts
2026-05-05 01:50 40.48304 0.23770 26963 ft 500 kts
2026-05-05 01:50 40.51665 0.25035 27216 ft 503 kts
2026-05-05 01:50 40.55018 0.26403 27490 ft 510 kts 14°
2026-05-05 01:50 40.58290 0.28333 27763 ft 519 kts 21°
2026-05-05 01:51 40.61493 0.30549 28000 ft 521 kts 21°
2026-05-05 01:51 40.64708 0.32774 28208 ft 523 kts 21°
2026-05-05 01:51 40.67895 0.34978 28420 ft 525 kts 21°
2026-05-05 01:51 40.71133 0.37215 28658 ft 526 kts 21°
2026-05-05 01:52 40.74365 0.39453 28944 ft 525 kts 21°
2026-05-05 01:52 40.77598 0.41694 29247 ft 524 kts 21°
2026-05-05 01:52 40.80820 0.43930 29541 ft 523 kts 21°
2026-05-05 01:52 40.84042 0.46165 29824 ft 523 kts 21°
2026-05-05 01:53 40.87269 0.48407 30116 ft 523 kts 21°
2026-05-05 01:53 40.90482 0.50643 30380 ft 523 kts 20°
2026-05-05 01:53 40.93702 0.52886 30681 ft 522 kts 21°
2026-05-05 01:53 40.96913 0.55125 30952 ft 522 kts 21°
2026-05-05 01:54 41.00079 0.57337 31221 ft 522 kts 21°
2026-05-05 01:54 41.03286 0.59582 31480 ft 521 kts 21°
2026-05-05 01:54 41.06490 0.61826 31753 ft 520 kts 21°
2026-05-05 01:54 41.09688 0.64069 32025 ft 520 kts 21°
2026-05-05 01:55 41.12907 0.66203 32307 ft 514 kts 15°
2026-05-05 01:55 41.16239 0.67794 32591 ft 505 kts
2026-05-05 01:55 41.19609 0.69099 32825 ft 504 kts
2026-05-05 01:55 41.22972 0.70402 33090 ft 503 kts
2026-05-05 01:56 41.26332 0.71707 33384 ft 503 kts
2026-05-05 01:56 41.29643 0.72998 33698 ft 502 kts
2026-05-05 01:56 41.32994 0.74307 33937 ft 502 kts
2026-05-05 01:56 41.36342 0.75619 34005 ft 503 kts
2026-05-05 01:57 41.43049 0.78256 33982 ft 501 kts
2026-05-05 01:57 41.49731 0.80888 33979 ft 501 kts
2026-05-05 01:58 41.56371 0.83504 34002 ft 501 kts
2026-05-05 01:58 41.63060 0.86137 33983 ft 501 kts
2026-05-05 01:59 41.69742 0.88781 33977 ft 501 kts
2026-05-05 01:59 41.76418 0.91429 33974 ft 501 kts
2026-05-05 02:00 41.83103 0.94083 34010 ft 501 kts
2026-05-05 02:00 41.89743 0.96732 34005 ft 501 kts
2026-05-05 02:01 41.96424 0.99395 34001 ft 501 kts
2026-05-05 02:01 42.03109 1.02073 34015 ft 501 kts 10°
2026-05-05 02:02 42.09744 1.04740 34002 ft 501 kts
2026-05-05 02:02 42.16489 1.06188 33995 ft 484 kts 353°
2026-05-05 02:03 42.23128 1.05638 34000 ft 477 kts 348°
2026-05-05 02:03 42.29751 1.04914 33987 ft 478 kts 348°
2026-05-05 02:04 42.36339 1.04205 33976 ft 478 kts 348°
2026-05-05 02:04 42.42978 1.03495 33996 ft 479 kts 348°
2026-05-05 02:05 42.49619 1.02767 33981 ft 479 kts 349°
2026-05-05 02:05 42.56276 1.02044 33973 ft 480 kts 348°
2026-05-05 02:06 42.62890 1.01327 33996 ft 480 kts 349°
2026-05-05 02:06 42.69555 1.00603 33978 ft 481 kts 349°
2026-05-05 02:07 42.76246 0.99867 33972 ft 482 kts 349°
2026-05-05 02:07 42.82933 0.99123 33983 ft 483 kts 349°
2026-05-05 02:08 42.89592 0.98382 33986 ft 483 kts 349°
2026-05-05 02:08 42.96293 0.97649 33986 ft 483 kts 349°
2026-05-05 02:09 43.03000 0.96913 34020 ft 484 kts 350°
2026-05-05 02:09 43.09715 0.96177 34007 ft 484 kts 350°
2026-05-05 02:10 43.14238 0.95678 34004 ft 484 kts 350°
2026-05-05 02:10 43.20958 0.94928 34000 ft 484 kts 350°
2026-05-05 02:11 43.27682 0.94179 34003 ft 485 kts 350°
2026-05-05 02:11 43.34423 0.93430 33996 ft 486 kts 350°
2026-05-05 02:12 43.44485 0.92295 34009 ft 486 kts 351°
2026-05-05 02:13 43.51233 0.91533 33993 ft 487 kts 351°
2026-05-05 02:13 43.57990 0.90782 33991 ft 487 kts 351°
2026-05-05 02:14 43.64707 0.90032 33992 ft 488 kts 352°
2026-05-05 02:14 43.71485 0.89259 33991 ft 488 kts 352°
2026-05-05 02:15 43.78258 0.88492 33983 ft 489 kts 352°
2026-05-05 02:15 43.85035 0.87717 33997 ft 489 kts 351°
2026-05-05 02:16 43.91513 0.85503 33988 ft 480 kts 333°
2026-05-05 02:16 43.97555 0.81644 33979 ft 478 kts 330°
2026-05-05 02:17 44.03590 0.77760 33986 ft 478 kts 331°
2026-05-05 02:17 44.09632 0.73856 33979 ft 479 kts 331°
2026-05-05 02:17 44.12666 0.71891 33760 ft 481 kts 331°
2026-05-05 02:18 44.15699 0.69920 33472 ft 482 kts 331°
2026-05-05 02:18 44.18697 0.67970 32416 ft 484 kts 331°
2026-05-05 02:18 44.21769 0.65968 31217 ft 489 kts 331°
2026-05-05 02:18 44.24851 0.63957 30132 ft 490 kts 332°
2026-05-05 02:19 44.27953 0.61934 28719 ft 493 kts 332°
2026-05-05 02:19 44.31061 0.59907 27445 ft 493 kts 332°
2026-05-05 02:19 44.34175 0.57876 26096 ft 494 kts 332°
2026-05-05 02:19 44.37290 0.55845 24798 ft 494 kts 332°
2026-05-05 02:20 44.40401 0.53814 23540 ft 493 kts 332°
2026-05-05 02:20 44.43504 0.51780 22168 ft 492 kts 332°
2026-05-05 02:20 44.46554 0.49779 21155 ft 472 kts 332°
2026-05-05 02:20 44.49433 0.47891 20251 ft 460 kts 332°
2026-05-05 02:21 44.52318 0.45992 19342 ft 456 kts 332°
2026-05-05 02:21 44.55175 0.44105 18464 ft 453 kts 332°
2026-05-05 02:21 44.58017 0.42226 17523 ft 449 kts 332°
2026-05-05 02:21 44.60823 0.40368 16694 ft 443 kts 332°
2026-05-05 02:22 44.63589 0.38532 15885 ft 437 kts 332°
2026-05-05 02:22 44.66322 0.36719 15183 ft 430 kts 333°
2026-05-05 02:22 44.68953 0.34776 14416 ft 423 kts 325°
2026-05-05 02:22 44.71253 0.32284 13637 ft 417 kts 315°
2026-05-05 02:23 44.73151 0.29267 12911 ft 407 kts 305°
2026-05-05 02:23 44.74579 0.25929 12197 ft 400 kts 295°
2026-05-05 02:23 44.75717 0.22399 11510 ft 393 kts 293°
2026-05-05 02:23 44.76824 0.18954 11191 ft 377 kts 294°
2026-05-05 02:24 44.77880 0.15680 11065 ft 357 kts 294°
2026-05-05 02:24 44.78884 0.12572 10944 ft 340 kts 294°
2026-05-05 02:24 44.79833 0.09621 10817 ft 324 kts 294°
2026-05-05 02:24 44.80739 0.06794 10703 ft 310 kts 294°
2026-05-05 02:25 44.81608 0.04081 10578 ft 297 kts 294°
2026-05-05 02:25 44.82444 0.01471 10365 ft 289 kts 294°
2026-05-05 02:25 44.83261 -0.01082 10254 ft 285 kts 294°
2026-05-05 02:25 44.84075 -0.03622 10192 ft 284 kts 294°
2026-05-05 02:26 44.84874 -0.06121 10108 ft 283 kts 294°
2026-05-05 02:26 44.85512 -0.08732 10010 ft 283 kts 282°
2026-05-05 02:26 44.86049 -0.11428 9426 ft 287 kts 290°
2026-05-05 02:26 44.86837 -0.13970 8884 ft 282 kts 295°
2026-05-05 02:27 44.87725 -0.16425 8503 ft 279 kts 297°
2026-05-05 02:27 44.88620 -0.18825 7910 ft 274 kts 297°
2026-05-05 02:27 44.89489 -0.21201 7446 ft 273 kts 296°
2026-05-05 02:27 44.90339 -0.23597 6985 ft 273 kts 296°
2026-05-05 02:28 44.91155 -0.25955 6589 ft 270 kts 295°
2026-05-05 02:28 44.91965 -0.28336 6067 ft 265 kts 295°
2026-05-05 02:28 44.92750 -0.30666 5607 ft 261 kts 295°
2026-05-05 02:28 44.93526 -0.32977 5159 ft 259 kts 295°
2026-05-05 02:29 44.94296 -0.35270 4740 ft 259 kts 295°
2026-05-05 02:29 44.95059 -0.37551 4311 ft 256 kts 295°
2026-05-05 02:29 44.95811 -0.39804 4017 ft 248 kts 295°
2026-05-05 02:29 44.96521 -0.41929 3920 ft 232 kts 294°
2026-05-05 02:30 44.97189 -0.43924 3852 ft 218 kts 294°
2026-05-05 02:30 44.97812 -0.45791 3772 ft 208 kts 291°
2026-05-05 02:30 44.98122 -0.47700 3674 ft 194 kts 268°
2026-05-05 02:30 44.97878 -0.49523 3551 ft 189 kts 246°
2026-05-05 02:31 44.97144 -0.51054 3224 ft 191 kts 225°
2026-05-05 02:31 44.96209 -0.52393 2993 ft 189 kts 225°
2026-05-05 02:31 44.95302 -0.53698 2981 ft 185 kts 225°
2026-05-05 02:31 44.94405 -0.54988 2971 ft 184 kts 225°
2026-05-05 02:32 44.93518 -0.56263 2867 ft 178 kts 225°
2026-05-05 02:32 44.92665 -0.57488 2598 ft 173 kts 226°
2026-05-05 02:32 44.91845 -0.58666 2437 ft 169 kts 227°
2026-05-05 02:32 44.91031 -0.59835 2206 ft 165 kts 227°
2026-05-05 02:33 44.90241 -0.60968 1996 ft 159 kts 227°
2026-05-05 02:33 44.89484 -0.62053 1787 ft 151 kts 227°
2026-05-05 02:33 44.88783 -0.63059 1607 ft 138 kts 227°
2026-05-05 02:33 44.88125 -0.64001 1416 ft 133 kts 227°
2026-05-05 02:34 44.87481 -0.64925 1235 ft 131 kts 227°
2026-05-05 02:34 44.86844 -0.65838 1049 ft 131 kts 226°
2026-05-05 02:34 44.86208 -0.66750 864 ft 131 kts 226°
2026-05-05 02:34 44.85579 -0.67649 690 ft 131 kts 226°
2026-05-05 02:35 44.84942 -0.68560 515 ft 130 kts 226°
2026-05-05 02:35 44.84308 -0.69466 326 ft 130 kts 226°
2026-05-05 02:35 44.83680 -0.70373 171 ft 127 kts 227°
2026-05-05 02:35 44.83150 -0.71129 169 ft 85 kts 225°
2026-05-05 02:36 44.82854 -0.71553 171 ft 36 kts 225°
2026-05-05 02:36 44.82701 -0.71773 174 ft 30 kts 224°
2026-05-05 02:36 44.82582 -0.71924 172 ft 12 kts 201°
2026-05-05 02:36 44.82510 -0.71873 171 ft 12 kts 130°
2026-05-05 02:37 44.82464 -0.71783 171 ft 11 kts 124°
2026-05-05 02:37 44.82452 -0.71682 171 ft 10 kts 73°
2026-05-05 02:37 44.82497 -0.71612 171 ft 9 kts 44°
2026-05-05 02:37 44.82540 -0.71550 171 ft 9 kts 46°
2026-05-05 02:38 44.82580 -0.71492 171 ft 8 kts 46°
2026-05-05 02:38 44.82619 -0.71435 171 ft 8 kts 45°
2026-05-05 02:38 44.82661 -0.71378 171 ft 9 kts 44°
2026-05-05 02:38 44.82702 -0.71321 171 ft 8 kts 45°
2026-05-05 02:39 44.82741 -0.71266 170 ft 8 kts 45°
2026-05-05 02:39 44.82786 -0.71202 168 ft 9 kts 46°
2026-05-05 02:39 44.82824 -0.71147 170 ft 6 kts 46°
2026-05-05 02:39 44.82849 -0.71111 171 ft 5 kts 46°
2026-05-05 02:40 44.82892 -0.71048 170 ft 15 kts 46°
2026-05-05 02:40 44.82962 -0.70947 170 ft 14 kts 44°
2026-05-05 02:40 44.83031 -0.70854 169 ft 13 kts 43°
2026-05-05 02:40 44.83093 -0.70764 169 ft 13 kts 48°
2026-05-05 02:41 44.83151 -0.70673 168 ft 12 kts 46°
2026-05-05 02:41 44.83207 -0.70588 167 ft 11 kts 71°
2026-05-05 02:41 44.83196 -0.70513 167 ft 7 kts 89°
2026-05-05 02:41 44.83221 -0.70463 167 ft 6 kts 46°
2026-05-05 02:42 44.83225 -0.70457 167 ft 0 kts 45°
2026-05-05 02:42 44.83236 -0.70424 166 ft 5 kts 100°
2026-05-05 02:42 44.83215 -0.70398 167 ft 3 kts 138°
2026-05-05 02:42 44.83202 -0.70380 167 ft 2 kts 135°
2026-05-05 02:43 44.83192 -0.70366 167 ft 2 kts 135°
2026-05-05 02:43 44.83190 -0.70364 167 ft 0 kts 135°